Home   Weather   Canterbury   Past weeks

Flag for United Kingdom Past Weather in Canterbury, England, United Kingdom — Yesterday and Last 2 Weeks

Now
50 °F

Cool.


Feels Like: 44 °F
Forecast: 50 / 54 °F
Wind: 15 mph from Southwest

Location: Langdon Bay

Current Time: Dec 8, 2016 at 5:52:44 am

Latest Report: Dec 8, 2016 at 5:00 am


Visibility: N/A

Pressure: 30.34 "Hg

Humidity: 87%

Dew Point: 46 °F

Location of CanterburyLocation

Past Weather in Canterbury — Graph

°F

Canterbury Temperature Yesterday

Maximum temperature yesterday: 52 °F (at 12:00 pm)
Minimum temperature yesterday: 49 °F (at 1:00 am)
Average temperature yesterday: 50 °F

High & Low Weather Summary for the Past Weeks

 TemperatureHumidityPressure
High52 °F (Nov 24, 10:00 am)99% (Nov 27, 7:00 am)30.57 "Hg (Nov 27, 7:00 am)
Low31 °F (Nov 29, 10:00 pm)28% (Nov 30, 2:00 pm)29.94 "Hg (Nov 23, 4:00 am)
Average44 °F81%30.29 "Hg
* Reported Nov 23 4:00 am — Dec 8 4:00 am, Canterbury, Weather by CustomWeather, © 2016

Note: Actual official high and low records may vary slightly from our data, if they occured in-between our weather recording intervals... More about our weather records

Advertising

Canterbury Weather History for the Previous 24 Hours

Scroll right to see more
 ConditionsComfort  
Time TempWeatherWind HumidityBarometerVisibility
4:00 am
Thu, Dec 8
50 °FCool.13 mph87%30.35 "HgN/A
3:00 am49 °FCool.12 mph87%30.35 "HgN/A
2:00 am49 °FCool.13 mph87%30.35 "HgN/A
1:00 am50 °FCool.14 mph86%30.34 "HgN/A
12:00 am50 °FCool.15 mph87%30.35 "HgN/A
11:00 pm
Wed, Dec 7
50 °FCool.13 mph88%30.36 "HgN/A
7:00 pm50 °FCool.10 mph93%30.37 "HgN/A
6:00 pm50 °FCool.8 mph92%30.36 "HgN/A
5:00 pm50 °FCool.8 mph90%30.36 "HgN/A
4:00 pm51 °FCool.12 mph87%30.35 "HgN/A
3:00 pm50 °FCool.9 mph90%30.34 "HgN/A
12:00 pm52 °FCool.12 mph85%30.36 "HgN/A
11:00 am51 °FCool.13 mph88%30.36 "HgN/A
10:00 am50 °FCool.12 mph92%30.37 "HgN/A
9:00 am49 °FCool.12 mph94%30.36 "HgN/A
8:00 am49 °FCool.14 mph94%30.34 "HgN/A
7:00 am49 °FCool.14 mph95%30.34 "HgN/A
6:00 am49 °FCool.9 mph97%30.35 "HgN/A
5:00 am49 °FCool.13 mph97%30.34 "HgN/A
Weather by CustomWeather, © 2016

See weather overviewHow to use our weather pages